Weather History for PAMR - September, 2011

Change the Weather History Date:

Saturday, September 24, 2011

  Actual Average Record
Temperature  
Mean Temperature 50 °F -  
Max Temperature 57 °F 50 °F 59 °F (1997)
Min Temperature 42 °F 37 °F 26 °F (2004)
Degree Days  
Heating Degree Days 16    
Moisture  
Dew Point 38 °F    
Average Humidity 66    
Maximum Humidity 89    
Minimum Humidity 46    
Precipitation  
Precipitation 0.00 in - - ()
Sea Level Pressure  
Sea Level Pressure 29.50 in    
Wind  
Wind Speed 2 mph (SW)    
Max Wind Speed 13 mph    
Max Gust Speed 20 mph    
Visibility 10 miles    
Events      
Averages and records for this station are not official NWS values.
T = Trace of Precipitation, MM = Missing Value Source: NWS Daily Summary

Daily Weather History Graph

Daily Weather History Graph

Search for Another Location

Airport or City:

Trip Planner

Search our weather history database for the weather conditions in past years. The results will help you decide how hot, cold, wet, or windy it might be!

Date:

Astronomy

Sep. 24, 2011 Rise Set
Actual Time 7:48 AM AKDT 7:53 PM AKDT
Civil Twilight 7:05 AM AKDT 8:36 PM AKDT
Nautical Twilight 6:13 AM AKDT 9:27 PM AKDT
Astronomical Twilight 5:16 AM AKDT 10:24 PM AKDT
Moon 3:50 AM AKDT (9/24) 6:36 PM AKDT (9/24)
Length of Visible Light 13h 31m
Length of Day
12h 04m
Waning Crescent, 10% of the Moon is Illuminated
Sep 24
Waning Crescent
Sep 27
New
Oct 3
First Quarter
Oct 11
Full
Oct 19
Last Quarter

Hourly Weather History & Observations

Time (AKDT) Temp. Dew Point Humidity Pressure Visibility Wind Dir Wind Speed Gust Speed Precip Events Conditions
12:53 AM 44.1 °F 39.9 °F 85% 29.39 in 10.0 mi Calm Calm - N/A   Scattered Clouds
1:53 AM 42.1 °F 39.0 °F 89% 29.39 in 10.0 mi Calm Calm - N/A   Scattered Clouds
2:53 AM 42.1 °F 39.0 °F 89% 29.41 in 10.0 mi Calm Calm - N/A   Partly Cloudy
3:53 AM 43.0 °F 39.0 °F 86% 29.42 in 10.0 mi Calm Calm - N/A   Mostly Cloudy
4:53 AM 45.0 °F 39.0 °F 80% 29.44 in 10.0 mi Calm Calm - N/A   Mostly Cloudy
5:53 AM 43.0 °F 39.0 °F 86% 29.45 in 10.0 mi Calm Calm - N/A   Scattered Clouds
6:53 AM 43.0 °F 39.9 °F 89% 29.46 in 10.0 mi Calm Calm - N/A   Scattered Clouds
7:53 AM 43.0 °F 39.0 °F 86% 29.47 in 10.0 mi Calm Calm - N/A   Mostly Cloudy
8:53 AM 45.0 °F 39.9 °F 82% 29.48 in 10.0 mi Calm Calm - N/A   Mostly Cloudy
9:53 AM 48.0 °F 39.0 °F 71% 29.50 in 10.0 mi Calm Calm - N/A   Scattered Clouds
10:53 AM 52.0 °F 39.9 °F 63% 29.51 in 10.0 mi Calm Calm - N/A   Mostly Cloudy
11:38 AM 53.6 °F 37.4 °F 54% 29.52 in 10.0 mi NNW 6.9 mph - N/A   Scattered Clouds
11:53 AM 55.9 °F 37.0 °F 49% 29.53 in 10.0 mi NW 6.9 mph - N/A   Scattered Clouds
12:53 PM 57.9 °F 37.0 °F 46% 29.54 in 10.0 mi SSW 10.4 mph - N/A   Mostly Cloudy
1:53 PM 55.9 °F 36.0 °F 47% 29.54 in 10.0 mi South 12.7 mph 19.6 mph N/A   Partly Cloudy
2:53 PM 55.0 °F 36.0 °F 49% 29.54 in 10.0 mi South 10.4 mph 19.6 mph N/A   Mostly Cloudy
3:53 PM 55.9 °F 36.0 °F 47% 29.54 in 10.0 mi SSW 12.7 mph - N/A   Mostly Cloudy
4:53 PM 55.9 °F 37.0 °F 49% 29.53 in 10.0 mi SSW 8.1 mph - N/A   Mostly Cloudy
5:53 PM 54.0 °F 37.0 °F 53% 29.53 in 10.0 mi South 11.5 mph - N/A   Mostly Cloudy
6:53 PM 53.1 °F 36.0 °F 52% 29.53 in 10.0 mi Variable 4.6 mph - N/A   Mostly Cloudy
7:53 PM 52.0 °F 35.1 °F 53% 29.53 in 10.0 mi Calm Calm - N/A   Mostly Cloudy
8:53 PM 50.0 °F 35.1 °F 57% 29.54 in 10.0 mi SW 4.6 mph - N/A   Overcast
9:53 PM 50.0 °F 35.1 °F 57% 29.54 in 10.0 mi Calm Calm - N/A   Mostly Cloudy
10:53 PM 48.9 °F 36.0 °F 61% 29.54 in 10.0 mi Calm Calm - N/A   Mostly Cloudy
11:53 PM 48.9 °F 37.9 °F 66% 29.54 in 10.0 mi Calm Calm - N/A   Mostly Cloudy